User: anonymous   Login
Location: Newark
(31.5350°N, 35.0986°E)
Time: 01:15:51
(UTC+00:00)
Language:

Explorer 11/Cluster Stage 4 - Orbit

View from above orbital plane
View from above orbital plane
View from above satellite
View from above satellite

Ground track
Ground track

The orbit data is extracted from the following two-line orbital elements,

1   107U 61013A   19262.03488400  .00000249  00000-0  13987-4 0  9993
2   107  28.7866 279.8382 0547431 127.2736 237.9039 14.08824768927322
Epoch (UTC): 19 September 2019 00:50:13
Eccentricity: 0.0547431
inclination: 28.7866°
perigee height: 467 km
apogee height: 1260 km
right ascension of ascending node: 279.8382°
argument of perigee: 127.2736°
revolutions per day: 14.08824768
mean anomaly at epoch: 237.9039°
orbit number at epoch: 92732

The dashed part of the orbit path shows where the satellite is in the earth's shadow,  

DLR